Flag for Austria Weather past 2 weeks in Zell am See, Salzburg, Austria

Now
57 °F

Cool.


Feels Like: 56 °F
Forecast: 59 / 90 °F
Wind: 6 mph from Southeast

Location: Salzburg-Flughafen

Current Time: Aug 3, 2015 at 3:28:56 AM

Latest Report: Aug 3, 2015 at 2:50 AM


Visibility: N/A

Pressure: 30.12 "Hg (27.51 "Hg at 761m altitude)

Humidity: 100%

Dew point: 57 °F

Location of Zell am SeeLocation

Historic Weather in Zell am See — Graph

°F

Zell am See temperature yesterday

Maximum temperature yesterday: 70 °F (at 5:20 PM)
Minimum temperature yesterday: 59 °F (at 1:50 AM)
Average temperature yesterday: 62 °F

Past Weeks' High & Low Weather Summary

 TemperatureHumidityPressure
High95 °F (Jul 22, 4:20 PM)100% (Jul 19, 4:20 AM)30.18 "Hg (Jul 19, 4:20 AM)
Low54 °F (Jul 29, 3:50 AM)32% (Jul 22, 4:20 PM)29.74 "Hg (Jul 24, 7:20 PM)
Average69 °F71%29.96 "Hg
* Reported Jul 19 1:20 AM — Aug 3 1:50 AM, Zell am See, Weather by CustomWeather, © 2015

Note: Actual official high and low records may vary slightly from our data, if they occured in-between our weather recording intervals... More about our weather records

Advertising

Zell am See weather history for previous 24 hours

 ConditionsComfort  
Time TempWeatherWind HumidityBarometerVisibility
1:50 AM
Mon, Aug 3
59 °FCool.7 mph94%30.12 "HgN/A
1:20 AM59 °FCool.8 mph94%30.12 "HgN/A
12:50 AM59 °FCool.7 mph94%30.15 "HgN/A
12:20 AM59 °FCool.8 mph94%30.15 "HgN/A
11:50 PM
Sun, Aug 2
59 °FClear.6 mph94%30.15 "Hg10 mi
11:20 PM59 °FCool.5 mph94%30.15 "HgN/A
10:50 PM59 °FClear.3 mph94%30.15 "Hg10 mi
10:20 PM61 °FPassing clouds.5 mph88%30.15 "HgN/A
9:50 PM61 °FPassing clouds.6 mph94%30.15 "HgN/A
9:20 PM61 °FPassing clouds.2 mph94%30.15 "HgN/A
8:50 PM64 °FPassing clouds.5 mph83%30.12 "HgN/A
8:20 PM68 °FPassing clouds.3 mph73%30.12 "HgN/A
7:50 PM70 °FPassing clouds.5 mph69%30.12 "HgN/A
7:20 PM70 °FPassing clouds.5 mph69%30.12 "HgN/A
6:50 PM70 °FPassing clouds.3 mph64%30.12 "HgN/A
6:20 PM70 °FScattered clouds.1 mph69%30.12 "HgN/A
5:50 PM70 °FScattered clouds.1 mph64%30.12 "HgN/A
5:20 PM70 °FBroken clouds.2 mph69%30.15 "HgN/A
4:50 PM68 °FPartly sunny.3 mph73%30.15 "HgN/A
4:20 PM68 °FPartly sunny.2 mph73%30.15 "HgN/A
3:50 PM66 °FBroken clouds.3 mph83%30.15 "HgN/A
3:20 PM64 °FBroken clouds.3 mph83%30.15 "HgN/A
2:50 PM64 °FLight rain. Broken clouds.3 mph83%30.15 "HgN/A
2:20 PM64 °FLight rain. Broken clouds.2 mph83%30.15 "HgN/A
1:50 PM63 °FLight rain. Broken clouds.2 mph88%30.18 "HgN/A
1:20 PM63 °FLight rain. Broken clouds.1 mph88%30.18 "HgN/A
12:50 PM61 °FRain. Broken clouds.3 mph94%30.18 "HgN/A
12:20 PM61 °FRain. Broken clouds.3 mph94%30.18 "HgN/A
11:50 AM61 °FRain. Broken clouds.6 mph94%30.15 "HgN/A
11:20 AM61 °FRain. Broken clouds.6 mph94%30.15 "Hg4 mi
10:50 AM61 °FRain. Broken clouds.3 mph94%30.15 "Hg5 mi
10:20 AM61 °FRain. Broken clouds.3 mph94%30.15 "Hg5 mi
9:50 AM61 °FRain. Broken clouds.5 mph94%30.12 "Hg5 mi
9:20 AM59 °FRain. Broken clouds.2 mph100%30.12 "Hg5 mi
8:50 AM59 °FLight rain. Broken clouds.1 mph100%30.12 "Hg5 mi
8:20 AM59 °FRain. Broken clouds.6 mph100%30.12 "HgN/A
7:50 AM59 °FRain. Broken clouds.6 mph94%30.12 "Hg5 mi
7:20 AM59 °FRain. Broken clouds.5 mph100%30.09 "Hg4 mi
6:50 AM59 °FRain. Broken clouds.6 mph100%30.09 "Hg4 mi
6:20 AM59 °FLight rain. Partly cloudy.6 mph100%30.09 "Hg4 mi
5:50 AM59 °FLight rain. Partly cloudy.5 mph100%30.09 "Hg4 mi
5:20 AM59 °FPartly cloudy.2 mph100%30.09 "Hg6 mi
4:50 AM59 °FPartly cloudy.5 mph100%30.07 "Hg3 mi
4:20 AM59 °FSprinkles. Passing clouds.3 mph100%30.07 "HgN/A
3:50 AM59 °FSprinkles. Overcast.2 mph100%30.07 "HgN/A
3:20 AM59 °FLight rain. Passing clouds.3 mph100%30.07 "HgN/A
Weather by CustomWeather, © 2015

See weather overviewHow to use our weather pages